カタログに戻る

STARLINK-35986

運用中通信VLEO
NORAD 66853·PAYLOAD·🇺🇸 United States

打ち上げ Dec 2, 2025 から Cape Canaveral Space Force Station

Loading…

次のパス (今後24時間)

TLE

最新Source: CelesTrak SupGP

元期: Sep 14, 2026, 20:57 UTC

1 66853C 25281F   26257.87340278  .00003046  00000+0  11034-3 0  2578
2 66853  43.0016 354.8770 0001610 272.2549 349.4552 15.27570043    14

AllMySatでSTARLINK-35986をリアルタイム追跡

Download on the App Store